| time (UTC) | temp F | wind direction | speed MPH | gust MPH | rain 1hr in | rain 24hr in | rain mn in | humidity % | barometer mb |
| 20260906223807 | 52 | 339 | 2.0 | 6.0 | 0.00 | 0.00 | 0.00 | 86 | 1021.3 |
| 20260906223301 | 51 | 36 | 3.0 | 8.0 | 0.00 | 0.00 | 0.00 | 86 | 1021.2 |
| 20260906222755 | 51 | 37 | 2.0 | 8.0 | 0.00 | 0.00 | 0.00 | 87 | 1021.2 |
| 20260906222249 | 51 | 8 | 1.0 | 7.0 | 0.00 | 0.00 | 0.00 | 89 | 1021.2 |
| 20260906221743 | 50 | 6 | 1.0 | 4.0 | 0.00 | 0.00 | 0.00 | 91 | 1021.3 |
| 20260906221237 | 49 | 331 | 1.0 | 4.0 | 0.00 | 0.00 | 0.00 | 92 | 1021.5 |
| 20260906220731 | 49 | 16 | 0.0 | 2.0 | 0.00 | 0.00 | 0.00 | 92 | 1021.5 |
| 20260906220226 | 48 | 24 | 1.0 | 6.0 | 0.00 | 0.00 | 0.00 | 91 | 1021.5 |
| 20260906215720 | 49 | 308 | 1.0 | 6.0 | 0.00 | 0.00 | 0.00 | 91 | 1021.5 |
| 20260906215215 | 49 | 36 | 1.0 | 4.0 | 0.00 | 0.00 | 0.00 | 92 | 1021.5 |
| 20260906214708 | 49 | 30 | 1.0 | 4.0 | 0.00 | 0.00 | 0.00 | 92 | 1021.7 |
| 20260906214203 | 49 | 339 | 0.0 | 3.0 | 0.00 | 0.00 | 0.00 | 92 | 1021.4 |
| 20260906213656 | 49 | 333 | 0.0 | 3.0 | 0.00 | 0.00 | 0.00 | 93 | 1021.5 |
| 20260906213411 | 48 | 34 | 1.0 | 5.0 | 0.00 | 0.00 | 0.00 | 93 | 1021.4 |
| 20260906212644 | 48 | 55 | 1.0 | 5.0 | 0.00 | 0.00 | 0.00 | 93 | 1021.3 |
| 20260906212137 | 48 | 39 | 0.0 | 4.0 | 0.00 | 0.00 | 0.00 | 93 | 1021.4 |
| 20260906211631 | 48 | 36 | 0.0 | 2.0 | 0.00 | 0.00 | 0.00 | 94 | 1021.3 |
| 20260906211125 | 48 | 23 | 0.0 | 2.0 | 0.00 | 0.00 | 0.00 | 94 | 1021.4 |
| 20260906210619 | 48 | 40 | 0.0 | 2.0 | 0.00 | 0.00 | 0.00 | 93 | 1021.3 |
| 20260906210113 | 48 | 265 | 0.0 | 1.0 | 0.00 | 0.00 | 0.00 | 94 | 1021.3 |
| 20260906205606 | 48 | 294 | 1.0 | 3.0 | 0.00 | 0.00 | 0.00 | 93 | 1021.2 |
| 20260906205103 | 48 | 34 | 1.0 | 4.0 | 0.00 | 0.00 | 0.00 | 93 | 1021.3 |
| 20260906204557 | 48 | 62 | 1.0 | 4.0 | 0.00 | 0.00 | 0.00 | 93 | 1021.3 |
| 20260906204050 | 48 | 54 | 0.0 | 3.0 | 0.00 | 0.00 | 0.00 | 94 | 1021.3 |
| 20260906203544 | 48 | 32 | 0.0 | 0.0 | 0.00 | 0.00 | 0.00 | 94 | 1021.3 |
| 20260906203037 | 48 | 320 | 0.0 | 0.0 | 0.00 | 0.00 | 0.00 | 94 | 1021.4 |
| 20260906202531 | 48 | 327 | 0.0 | 2.0 | 0.00 | 0.00 | 0.00 | 93 | 1021.3 |
| 20260906202025 | 48 | 327 | 0.0 | 2.0 | 0.00 | 0.00 | 0.00 | 93 | 1021.1 |
| 20260906201519 | 48 | 282 | 0.0 | 2.0 | 0.00 | 0.00 | 0.00 | 93 | 1021.0 |
| 20260906201013 | 48 | 10 | 0.0 | 4.0 | 0.00 | 0.00 | 0.00 | 93 | 1020.9 |
| 20260906200507 | 48 | 33 | 1.0 | 4.0 | 0.00 | 0.00 | 0.00 | 93 | 1020.9 |
| 20260906200001 | 48 | 43 | 1.0 | 3.0 | 0.00 | 0.00 | 0.00 | 93 | 1020.9 |
| 20260906195456 | 48 | 31 | 0.0 | 2.0 | 0.00 | 0.00 | 0.00 | 93 | 1020.9 |
| 20260906194950 | 48 | 350 | 0.0 | 2.0 | 0.00 | 0.00 | 0.00 | 93 | 1021.0 |
| 20260906194714 | 48 | 56 | 0.0 | 2.0 | 0.00 | 0.00 | 0.00 | 93 | 1021.1 |
| 20260906193948 | 48 | 289 | 0.0 | 3.0 | 0.00 | 0.00 | 0.00 | 93 | 1021.2 |
| 20260906193447 | 48 | 289 | 0.0 | 3.0 | 0.00 | 0.00 | 0.00 | 93 | 1021.1 |
| 20260906192943 | 48 | 275 | 0.0 | 0.0 | 0.00 | 0.00 | 0.00 | 93 | 1021.0 |
| 20260906192441 | 48 | 301 | 0.0 | 1.0 | 0.00 | 0.00 | 0.00 | 93 | 1021.0 |
| 20260906191941 | 48 | 301 | 0.0 | 1.0 | 0.00 | 0.00 | 0.00 | 93 | 1021.1 |
| 20260906191441 | 48 | 284 | 0.0 | 0.0 | 0.00 | 0.00 | 0.00 | 93 | 1021.1 |
| 20260906190939 | 48 | 284 | 0.0 | 1.0 | 0.00 | 0.00 | 0.00 | 93 | 1021.1 |
| 20260906190441 | 48 | 31 | 0.0 | 1.0 | 0.00 | 0.00 | 0.00 | 93 | 1021.1 |
| 20260906185938 | 48 | 31 | 0.0 | 4.0 | 0.00 | 0.00 | 0.00 | 93 | 1021.1 |
| 20260906185657 | 48 | 29 | 0.0 | 4.0 | 0.00 | 0.00 | 0.00 | 92 | 1021.2 |
| 20260906184944 | 48 | 71 | 0.0 | 2.0 | 0.00 | 0.00 | 0.00 | 92 | 1021.2 |
| 20260906184704 | 48 | 313 | 0.0 | 1.0 | 0.00 | 0.00 | 0.00 | 92 | 1021.2 |
| 20260906183946 | 48 | 313 | 0.0 | 1.0 | 0.00 | 0.00 | 0.00 | 92 | 1021.1 |
| 20260906183442 | 48 | 41 | 0.0 | 1.0 | 0.00 | 0.00 | 0.00 | 92 | 1021.1 |
| 20260906182942 | 48 | 314 | 0.0 | 1.0 | 0.00 | 0.00 | 0.00 | 92 | 1021.1 |
| 20260906182701 | 48 | 303 | 0.0 | 2.0 | 0.00 | 0.00 | 0.00 | 92 | 1021.1 |
| 20260906181942 | 48 | 46 | 0.0 | 2.0 | 0.00 | 0.00 | 0.00 | 92 | 1021.0 |
| 20260906181442 | 48 | 289 | 0.0 | 2.0 | 0.00 | 0.00 | 0.00 | 93 | 1021.0 |
| 20260906180942 | 48 | 39 | 0.0 | 1.0 | 0.00 | 0.00 | 0.00 | 93 | 1021.0 |
| 20260906180441 | 48 | 7 | 0.0 | 1.0 | 0.00 | 0.00 | 0.00 | 93 | 1021.0 |
| 20260906175940 | 49 | 306 | 0.0 | 1.0 | 0.00 | 0.00 | 0.00 | 93 | 1020.9 |
| 20260906175440 | 49 | 306 | 0.0 | 1.0 | 0.00 | 0.00 | 0.00 | 93 | 1020.8 |
| 20260906174940 | 49 | 335 | 0.0 | 0.0 | 0.00 | 0.00 | 0.00 | 93 | 1020.7 |
| 20260906174659 | 48 | 335 | 0.0 | 0.0 | 0.00 | 0.00 | 0.00 | 93 | 1020.7 |
| 20260906173940 | 48 | 335 | 0.0 | 0.0 | 0.00 | 0.00 | 0.00 | 93 | 1020.6 |
| 20260906173440 | 48 | 335 | 0.0 | 0.0 | 0.00 | 0.00 | 0.00 | 93 | 1020.6 |
| 20260906172939 | 48 | 335 | 0.0 | 0.0 | 0.00 | 0.00 | 0.00 | 93 | 1020.6 |
| 20260906172920 | 48 | 335 | 0.0 | 0.0 | 0.00 | 0.00 | 0.00 | 93 | 1020.7 |
| 20260906172200 | 48 | 335 | 0.0 | 0.0 | 0.00 | 0.00 | 0.00 | 93 | 1020.8 |
| 20260906171429 | 48 | 335 | 0.0 | 0.0 | 0.00 | 0.00 | 0.00 | 93 | 1020.9 |
| 20260906171155 | 48 | 335 | 0.0 | 0.0 | 0.00 | 0.00 | 0.00 | 93 | 1020.9 |
| 20260906170429 | 48 | 335 | 0.0 | 0.0 | 0.00 | 0.00 | 0.00 | 93 | 1020.9 |
| 20260906165928 | 48 | 335 | 0.0 | 0.0 | 0.00 | 0.00 | 0.00 | 93 | 1020.9 |
| 20260906165429 | 48 | 335 | 0.0 | 0.0 | 0.00 | 0.00 | 0.00 | 93 | 1020.9 |
| 20260906164928 | 48 | 335 | 0.0 | 0.0 | 0.00 | 0.00 | 0.00 | 93 | 1021.0 |
| 20260906164429 | 48 | 335 | 0.0 | 0.0 | 0.00 | 0.00 | 0.00 | 93 | 1021.0 |
| 20260906163931 | 48 | 335 | 0.0 | 0.0 | 0.00 | 0.00 | 0.00 | 93 | 1020.9 |
| 20260906163429 | 48 | 335 | 0.0 | 0.0 | 0.00 | 0.00 | 0.00 | 93 | 1021.0 |
| 20260906162930 | 48 | 335 | 0.0 | 0.0 | 0.00 | 0.00 | 0.00 | 93 | 1021.2 |
| 20260906162429 | 48 | 335 | 0.0 | 0.0 | 0.00 | 0.00 | 0.00 | 93 | 1021.1 |
| 20260906161928 | 48 | 335 | 0.0 | 0.0 | 0.00 | 0.00 | 0.00 | 93 | 1021.1 |
| 20260906161429 | 48 | 335 | 0.0 | 0.0 | 0.00 | 0.00 | 0.00 | 93 | 1021.1 |
| 20260906160929 | 48 | 335 | 0.0 | 0.0 | 0.00 | 0.00 | 0.00 | 94 | 1021.2 |
| 20260906160429 | 48 | 335 | 0.0 | 0.0 | 0.00 | 0.00 | 0.00 | 94 | 1021.2 |
| 20260906155930 | 48 | 335 | 0.0 | 0.0 | 0.00 | 0.00 | 0.00 | 94 | 1021.3 |
| 20260906155429 | 48 | 335 | 0.0 | 0.0 | 0.00 | 0.00 | 0.00 | 94 | 1021.4 |
| 20260906154924 | 48 | 335 | 0.0 | 0.0 | 0.00 | 0.00 | 0.00 | 94 | 1021.4 |
| 20260906154415 | 48 | 335 | 0.0 | 0.0 | 0.00 | 0.00 | 0.00 | 94 | 1021.4 |
| 20260906153916 | 48 | 335 | 0.0 | 0.0 | 0.00 | 0.00 | 0.00 | 94 | 1021.5 |
| 20260906153416 | 48 | 335 | 0.0 | 0.0 | 0.00 | 0.00 | 0.00 | 94 | 1021.7 |
| 20260906152858 | 48 | 335 | 0.0 | 0.0 | 0.00 | 0.00 | 0.00 | 94 | 1021.7 |
| 20260906152354 | 48 | 335 | 0.0 | 0.0 | 0.00 | 0.00 | 0.00 | 93 | 1021.8 |
| 20260906151845 | 48 | 335 | 0.0 | 0.0 | 0.00 | 0.00 | 0.00 | 93 | 1021.9 |
| 20260906151341 | 48 | 335 | 0.0 | 0.0 | 0.00 | 0.00 | 0.00 | 93 | 1022.0 |
| 20260906150841 | 48 | 335 | 0.0 | 0.0 | 0.00 | 0.00 | 0.00 | 94 | 1022.0 |
| 20260906150328 | 48 | 335 | 0.0 | 0.0 | 0.00 | 0.00 | 0.00 | 94 | 1022.1 |
| 20260906145824 | 48 | 335 | 0.0 | 0.0 | 0.00 | 0.00 | 0.00 | 94 | 1022.0 |
| 20260906145316 | 48 | 335 | 0.0 | 0.0 | 0.00 | 0.00 | 0.00 | 94 | 1022.0 |
| 20260906144816 | 48 | 335 | 0.0 | 0.0 | 0.00 | 0.00 | 0.00 | 94 | 1022.2 |
| 20260906144810 | 48 | 335 | 0.0 | 0.0 | 0.00 | 0.00 | 0.00 | 94 | 1022.2 |
| 20260906144301 | 48 | 335 | 0.0 | 0.0 | 0.00 | 0.00 | 0.00 | 94 | 1022.2 |
| 20260906143310 | 48 | 335 | 0.0 | 0.0 | 0.00 | 0.00 | 0.00 | 94 | 1022.3 |
| 20260906142809 | 48 | 335 | 0.0 | 0.0 | 0.00 | 0.00 | 0.00 | 94 | 1022.2 |
| 20260906142308 | 48 | 335 | 0.0 | 0.0 | 0.00 | 0.00 | 0.00 | 94 | 1022.3 |
| 20260906141808 | 48 | 335 | 0.0 | 0.0 | 0.00 | 0.02 | 0.00 | 94 | 1022.2 |
| 20260906141307 | 48 | 335 | 0.0 | 0.0 | 0.00 | 0.03 | 0.00 | 94 | 1022.2 |
| 20260906141029 | 48 | 335 | 0.0 | 0.0 | 0.00 | 0.03 | 0.00 | 94 | 1022.2 |
| 20260906140528 | 48 | 335 | 0.0 | 0.0 | 0.00 | 0.03 | 0.00 | 94 | 1022.2 |
| 20260906140245 | 48 | 335 | 0.0 | 0.0 | 0.00 | 0.03 | 0.03 | 94 | 1022.3 |
| 20260906140041 | 48 | 335 | 0.0 | 0.0 | 0.00 | 0.03 | 0.03 | 94 | 1022.3 |
| 20260906135518 | 48 | 335 | 0.0 | 0.0 | 0.00 | 0.03 | 0.03 | 94 | 1022.2 |
| 20260906134754 | 47 | 335 | 0.0 | 0.0 | 0.00 | 0.03 | 0.03 | 95 | 1022.1 |
| 20260906134254 | 47 | 335 | 0.0 | 0.0 | 0.00 | 0.03 | 0.03 | 95 | 1022.1 |
| 20260906133753 | 47 | 335 | 0.0 | 0.0 | 0.00 | 0.03 | 0.03 | 95 | 1022.2 |
| 20260906133735 | 47 | 335 | 0.0 | 0.0 | 0.00 | 0.03 | 0.03 | 95 | 1022.2 |
| 20260906132747 | 47 | 335 | 0.0 | 0.0 | 0.00 | 0.03 | 0.03 | 95 | 1022.1 |
| 20260906132245 | 47 | 335 | 0.0 | 0.0 | 0.00 | 0.03 | 0.03 | 95 | 1022.1 |
| 20260906131743 | 47 | 335 | 0.0 | 0.0 | 0.00 | 0.03 | 0.03 | 95 | 1022.2 |
| 20260906131730 | 46 | 335 | 0.0 | 0.0 | 0.00 | 0.03 | 0.03 | 95 | 1022.1 |
| 20260906130739 | 46 | 335 | 0.0 | 0.0 | 0.00 | 0.03 | 0.03 | 95 | 1022.2 |
| 20260906130239 | 46 | 335 | 0.0 | 0.0 | 0.00 | 0.03 | 0.03 | 95 | 1022.2 |
| 20260906125739 | 46 | 335 | 0.0 | 0.0 | 0.00 | 0.03 | 0.03 | 95 | 1022.1 |
| 20260906125237 | 45 | 335 | 0.0 | 0.0 | 0.00 | 0.03 | 0.03 | 94 | 1022.1 |
| 20260906124745 | 45 | 335 | 0.0 | 0.0 | 0.00 | 0.03 | 0.03 | 94 | 1022.2 |
| 20260906124237 | 45 | 335 | 0.0 | 0.0 | 0.00 | 0.03 | 0.03 | 94 | 1022.2 |
| 20260906123955 | 45 | 335 | 0.0 | 0.0 | 0.00 | 0.03 | 0.03 | 94 | 1022.2 |
| 20260906123455 | 45 | 335 | 0.0 | 0.0 | 0.00 | 0.03 | 0.03 | 94 | 1022.2 |
| 20260906122737 | 45 | 335 | 0.0 | 0.0 | 0.00 | 0.03 | 0.03 | 94 | 1022.3 |
| 20260906122237 | 45 | 335 | 0.0 | 0.0 | 0.00 | 0.03 | 0.03 | 93 | 1022.3 |
| 20260906121741 | 45 | 335 | 0.0 | 0.0 | 0.00 | 0.03 | 0.03 | 94 | 1022.3 |
| 20260906121242 | 45 | 335 | 0.0 | 0.0 | 0.00 | 0.03 | 0.03 | 94 | 1022.2 |
| 20260906120742 | 45 | 335 | 0.0 | 0.0 | 0.00 | 0.03 | 0.03 | 93 | 1022.2 |
| 20260906120240 | 46 | 335 | 0.0 | 0.0 | 0.00 | 0.03 | 0.03 | 93 | 1022.2 |
| 20260906115740 | 46 | 335 | 0.0 | 0.0 | 0.00 | 0.03 | 0.03 | 93 | 1022.2 |
| 20260906115239 | 46 | 335 | 0.0 | 0.0 | 0.00 | 0.03 | 0.03 | 93 | 1022.2 |
| 20260906114739 | 46 | 335 | 0.0 | 0.0 | 0.00 | 0.03 | 0.03 | 93 | 1022.2 |
| 20260906114239 | 46 | 335 | 0.0 | 0.0 | 0.00 | 0.03 | 0.03 | 93 | 1022.1 |
| 20260906113739 | 46 | 335 | 0.0 | 0.0 | 0.00 | 0.03 | 0.03 | 93 | 1022.1 |
| 20260906113240 | 47 | 335 | 0.0 | 0.0 | 0.00 | 0.03 | 0.03 | 93 | 1022.0 |
| 20260906112738 | 47 | 335 | 0.0 | 0.0 | 0.00 | 0.03 | 0.03 | 93 | 1022.0 |
| 20260906112237 | 47 | 335 | 0.0 | 0.0 | 0.00 | 0.03 | 0.03 | 93 | 1021.9 |
| 20260906111738 | 47 | 335 | 0.0 | 0.0 | 0.00 | 0.03 | 0.03 | 93 | 1021.9 |
| 20260906111238 | 47 | 335 | 0.0 | 0.0 | 0.00 | 0.03 | 0.03 | 93 | 1021.9 |
| 20260906110739 | 47 | 335 | 0.0 | 0.0 | 0.00 | 0.03 | 0.03 | 93 | 1021.8 |
| 20260906110455 | 47 | 335 | 0.0 | 0.0 | 0.00 | 0.03 | 0.03 | 92 | 1021.8 |
| 20260906105736 | 47 | 335 | 0.0 | 0.0 | 0.00 | 0.03 | 0.03 | 92 | 1021.7 |
| 20260906105449 | 47 | 335 | 0.0 | 0.0 | 0.00 | 0.03 | 0.03 | 92 | 1021.7 |
| 20260906104729 | 47 | 335 | 0.0 | 0.0 | 0.00 | 0.03 | 0.03 | 92 | 1021.5 |
| 20260906104226 | 47 | 335 | 0.0 | 0.0 | 0.00 | 0.03 | 0.03 | 91 | 1021.4 |
| 20260906104219 | 47 | 335 | 0.0 | 0.0 | 0.00 | 0.03 | 0.03 | 91 | 1021.4 |
| 20260906103224 | 47 | 335 | 0.0 | 0.0 | 0.00 | 0.03 | 0.03 | 91 | 1021.4 |
| 20260906102724 | 48 | 335 | 0.0 | 0.0 | 0.00 | 0.03 | 0.03 | 91 | 1021.3 |
| 20260906102217 | 48 | 335 | 0.0 | 0.0 | 0.00 | 0.03 | 0.03 | 91 | 1021.2 |
| 20260906101712 | 48 | 335 | 0.0 | 0.0 | 0.00 | 0.03 | 0.03 | 90 | 1021.2 |
| 20260906101206 | 48 | 335 | 0.0 | 0.0 | 0.00 | 0.03 | 0.03 | 90 | 1021.1 |
| 20260906100700 | 48 | 335 | 0.0 | 0.0 | 0.00 | 0.03 | 0.03 | 90 | 1021.1 |
| 20260906100155 | 49 | 335 | 0.0 | 0.0 | 0.00 | 0.03 | 0.03 | 90 | 1021.2 |
| 20260906095648 | 49 | 335 | 0.0 | 0.0 | 0.00 | 0.03 | 0.03 | 89 | 1021.1 |
| 20260906095142 | 49 | 335 | 0.0 | 0.0 | 0.00 | 0.03 | 0.03 | 89 | 1021.1 |
| 20260906094643 | 49 | 335 | 0.0 | 0.0 | 0.00 | 0.03 | 0.03 | 88 | 1021.1 |
| 20260906094130 | 50 | 335 | 0.0 | 0.0 | 0.00 | 0.03 | 0.03 | 88 | 1021.0 |
| 20260906093626 | 50 | 335 | 0.0 | 0.0 | 0.00 | 0.03 | 0.03 | 88 | 1021.0 |
| 20260906093117 | 50 | 335 | 0.0 | 0.0 | 0.00 | 0.03 | 0.03 | 87 | 1020.9 |
| 20260906092612 | 50 | 335 | 0.0 | 0.0 | 0.00 | 0.03 | 0.03 | 87 | 1020.9 |
| 20260906092110 | 51 | 335 | 0.0 | 0.0 | 0.00 | 0.03 | 0.03 | 86 | 1020.9 |
| 20260906091602 | 51 | 335 | 0.0 | 0.0 | 0.00 | 0.03 | 0.03 | 85 | 1020.8 |
| 20260906091054 | 52 | 335 | 0.0 | 0.0 | 0.00 | 0.03 | 0.03 | 85 | 1020.7 |
| 20260906090548 | 52 | 335 | 0.0 | 0.0 | 0.00 | 0.03 | 0.03 | 85 | 1020.7 |
| 20260906090042 | 52 | 335 | 0.0 | 0.0 | 0.00 | 0.03 | 0.03 | 84 | 1020.6 |
| 20260906085540 | 53 | 335 | 0.0 | 0.0 | 0.00 | 0.03 | 0.03 | 83 | 1020.6 |
| 20260906085031 | 53 | 335 | 0.0 | 2.0 | 0.00 | 0.03 | 0.03 | 83 | 1020.6 |
| 20260906084755 | 53 | 303 | 1.0 | 5.0 | 0.00 | 0.03 | 0.03 | 83 | 1020.5 |
| 20260906084018 | 53 | 32 | 1.0 | 5.0 | 0.00 | 0.03 | 0.03 | 82 | 1020.4 |
| 20260906083512 | 53 | 257 | 2.0 | 5.0 | 0.00 | 0.03 | 0.03 | 82 | 1020.2 |
| 20260906083008 | 54 | 358 | 1.0 | 5.0 | 0.00 | 0.03 | 0.03 | 82 | 1020.2 |
| 20260906082500 | 54 | 57 | 1.0 | 5.0 | 0.00 | 0.03 | 0.03 | 81 | 1020.1 |
| 20260906082212 | 54 | 291 | 1.0 | 6.0 | 0.00 | 0.03 | 0.03 | 80 | 1019.9 |
| 20260906081448 | 54 | 42 | 2.0 | 6.0 | 0.00 | 0.03 | 0.03 | 80 | 1019.9 |
| 20260906080942 | 55 | 22 | 1.0 | 5.0 | 0.00 | 0.03 | 0.03 | 80 | 1019.8 |
| 20260906080437 | 55 | 52 | 1.0 | 6.0 | 0.00 | 0.03 | 0.03 | 79 | 1019.7 |
| 20260906075929 | 55 | 40 | 2.0 | 6.0 | 0.00 | 0.03 | 0.03 | 78 | 1019.6 |
| 20260906075424 | 56 | 66 | 1.0 | 4.0 | 0.00 | 0.03 | 0.03 | 78 | 1019.6 |
| 20260906074918 | 56 | 3 | 1.0 | 3.0 | 0.00 | 0.03 | 0.03 | 77 | 1019.6 |
| 20260906074456 | 56 | 40 | 1.0 | 4.0 | 0.00 | 0.03 | 0.03 | 76 | 1019.6 |
| 20260906073400 | 57 | 44 | 1.0 | 4.0 | 0.00 | 0.03 | 0.03 | 74 | 1019.3 |
| 20260906072854 | 58 | 314 | 1.0 | 5.0 | 0.00 | 0.03 | 0.03 | 73 | 1019.2 |
| 20260906072348 | 59 | 49 | 1.0 | 6.0 | 0.00 | 0.03 | 0.03 | 71 | 1019.2 |
| 20260906071842 | 59 | 5 | 1.0 | 6.0 | 0.00 | 0.03 | 0.03 | 71 | 1019.1 |
| 20260906071336 | 59 | 32 | 2.0 | 8.0 | 0.00 | 0.03 | 0.03 | 70 | 1019.0 |
| 20260906070830 | 59 | 45 | 2.0 | 8.0 | 0.00 | 0.03 | 0.03 | 70 | 1019.0 |
| 20260906070323 | 60 | 62 | 3.0 | 6.0 | 0.00 | 0.03 | 0.03 | 69 | 1018.9 |
| 20260906065818 | 60 | 27 | 2.0 | 6.0 | 0.00 | 0.03 | 0.03 | 68 | 1018.9 |
| 20260906065311 | 60 | 45 | 3.0 | 9.0 | 0.00 | 0.03 | 0.03 | 68 | 1018.8 |
| 20260906064812 | 60 | 14 | 3.0 | 9.0 | 0.00 | 0.04 | 0.03 | 68 | 1018.7 |
| 20260906064525 | 61 | 31 | 2.0 | 8.0 | 0.00 | 0.04 | 0.03 | 66 | 1018.7 |
| 20260906063754 | 62 | 327 | 1.0 | 8.0 | 0.00 | 0.05 | 0.03 | 65 | 1018.7 |
| 20260906063247 | 62 | 28 | 2.0 | 7.0 | 0.00 | 0.05 | 0.03 | 65 | 1018.7 |
| 20260906062742 | 62 | 313 | 3.0 | 7.0 | 0.00 | 0.06 | 0.03 | 65 | 1018.7 |
| 20260906062241 | 62 | 278 | 2.0 | 7.0 | 0.00 | 0.06 | 0.03 | 65 | 1018.7 |
| 20260906061731 | 62 | 298 | 2.0 | 7.0 | 0.00 | 0.06 | 0.03 | 64 | 1018.6 |
| 20260906061450 | 62 | 296 | 2.0 | 7.0 | 0.00 | 0.08 | 0.03 | 65 | 1018.6 |
| 20260906060717 | 62 | 48 | 3.0 | 12.0 | 0.00 | 0.08 | 0.03 | 64 | 1018.7 |
| 20260906060214 | 62 | 38 | 3.0 | 12.0 | 0.00 | 0.08 | 0.03 | 64 | 1018.6 |
| 20260906055706 | 62 | 64 | 3.0 | 12.0 | 0.00 | 0.08 | 0.03 | 64 | 1018.7 |
| 20260906055420 | 63 | 344 | 2.0 | 9.0 | 0.00 | 0.08 | 0.03 | 63 | 1018.8 |
| 20260906054654 | 63 | 343 | 2.0 | 9.0 | 0.00 | 0.08 | 0.03 | 61 | 1018.7 |
| 20260906054148 | 63 | 45 | 2.0 | 9.0 | 0.00 | 0.08 | 0.03 | 63 | 1018.8 |
| 20260906053641 | 63 | 11 | 3.0 | 8.0 | 0.00 | 0.08 | 0.03 | 61 | 1018.8 |
| 20260906053138 | 63 | 358 | 3.0 | 8.0 | 0.00 | 0.08 | 0.03 | 61 | 1018.7 |
| 20260906052630 | 63 | 47 | 2.0 | 6.0 | 0.00 | 0.08 | 0.03 | 62 | 1018.6 |
| 20260906052124 | 63 | 47 | 2.0 | 7.0 | 0.00 | 0.08 | 0.03 | 62 | 1018.5 |
| 20260906051618 | 63 | 257 | 2.0 | 7.0 | 0.00 | 0.08 | 0.03 | 61 | 1018.5 |
| 20260906051112 | 63 | 294 | 2.0 | 7.0 | 0.00 | 0.08 | 0.03 | 61 | 1018.4 |
| 20260906050607 | 63 | 77 | 3.0 | 8.0 | 0.00 | 0.08 | 0.03 | 60 | 1018.2 |
| 20260906050100 | 63 | 301 | 2.0 | 8.0 | 0.00 | 0.08 | 0.03 | 60 | 1018.1 |
| 20260906045827 | 63 | 341 | 2.0 | 6.0 | 0.00 | 0.08 | 0.03 | 61 | 1018.1 |
| 20260906045100 | 63 | 271 | 2.0 | 7.0 | 0.00 | 0.08 | 0.03 | 61 | 1018.0 |
| 20260906044600 | 63 | 297 | 2.0 | 7.0 | 0.00 | 0.08 | 0.03 | 61 | 1018.0 |
| 20260906044059 | 63 | 64 | 2.0 | 10.0 | 0.00 | 0.08 | 0.03 | 63 | 1018.0 |
| 20260906043600 | 63 | 33 | 3.0 | 10.0 | 0.00 | 0.09 | 0.03 | 61 | 1018.0 |
| 20260906043058 | 62 | 38 | 3.0 | 10.0 | 0.00 | 0.10 | 0.03 | 63 | 1017.9 |
| 20260906042828 | 63 | 46 | 4.0 | 10.0 | 0.00 | 0.12 | 0.03 | 60 | 1017.8 |
| 20260906042058 | 63 | 26 | 3.0 | 9.0 | 0.00 | 0.13 | 0.03 | 61 | 1017.7 |
| 20260906041558 | 63 | 45 | 3.0 | 9.0 | 0.00 | 0.13 | 0.03 | 61 | 1017.5 |
| 20260906041058 | 63 | 111 | 3.0 | 10.0 | 0.00 | 0.14 | 0.03 | 60 | 1017.5 |
| 20260906040557 | 64 | 26 | 3.0 | 10.0 | 0.00 | 0.14 | 0.03 | 56 | 1017.5 |
| 20260906040058 | 64 | 287 | 2.0 | 7.0 | 0.00 | 0.15 | 0.03 | 57 | 1017.4 |
| 20260906035558 | 64 | 280 | 3.0 | 7.0 | 0.00 | 0.15 | 0.03 | 58 | 1017.3 |
| 20260906035059 | 64 | 264 | 3.0 | 10.0 | 0.00 | 0.15 | 0.03 | 55 | 1017.3 |
| 20260906034558 | 64 | 325 | 1.0 | 10.0 | 0.00 | 0.16 | 0.03 | 57 | 1017.2 |
| 20260906034546 | 63 | 341 | 1.0 | 7.0 | 0.00 | 0.16 | 0.03 | 59 | 1017.1 |
| 20260906033553 | 62 | 56 | 2.0 | 7.0 | 0.00 | 0.17 | 0.03 | 58 | 1017.0 |
| 20260906033054 | 62 | 4 | 1.0 | 6.0 | 0.00 | 0.17 | 0.03 | 56 | 1017.0 |
| 20260906033045 | 63 | 302 | 1.0 | 5.0 | 0.00 | 0.17 | 0.03 | 56 | 1017.0 |
| 20260906032310 | 63 | 24 | 1.0 | 4.0 | 0.00 | 0.17 | 0.03 | 56 | 1016.8 |
| 20260906031549 | 63 | 294 | 2.0 | 8.0 | 0.00 | 0.17 | 0.03 | 58 | 1016.8 |
| 20260906031049 | 63 | 17 | 3.0 | 8.0 | 0.00 | 0.18 | 0.03 | 58 | 1017.0 |
| 20260906030819 | 64 | 52 | 2.0 | 7.0 | 0.00 | 0.18 | 0.03 | 56 | 1017.1 |
| 20260906030049 | 64 | 26 | 3.0 | 8.0 | 0.00 | 0.18 | 0.03 | 54 | 1017.0 |
| 20260906025551 | 64 | 270 | 3.0 | 10.0 | 0.00 | 0.18 | 0.03 | 56 | 1017.0 |
| 20260906025050 | 65 | 42 | 2.0 | 10.0 | 0.00 | 0.18 | 0.03 | 53 | 1017.0 |
| 20260906024551 | 65 | 72 | 1.0 | 7.0 | 0.00 | 0.18 | 0.03 | 54 | 1016.9 |
| 20260906024046 | 65 | 56 | 1.0 | 5.0 | 0.00 | 0.18 | 0.03 | 52 | 1016.9 |
| 20260906023546 | 65 | 67 | 2.0 | 5.0 | 0.00 | 0.18 | 0.03 | 47 | 1016.8 |
| 20260906023046 | 65 | 27 | 1.0 | 5.0 | 0.00 | 0.18 | 0.03 | 47 | 1016.9 |
| 20260906022546 | 65 | 149 | 1.0 | 5.0 | 0.00 | 0.18 | 0.03 | 47 | 1016.9 |
| 20260906022313 | 65 | 36 | 1.0 | 5.0 | 0.00 | 0.18 | 0.03 | 47 | 1016.9 |
| 20260906021546 | 64 | 250 | 0.0 | 3.0 | 0.00 | 0.18 | 0.03 | 47 | 1017.0 |
| 20260906021045 | 64 | 228 | 1.0 | 4.0 | 0.00 | 0.18 | 0.03 | 49 | 1016.9 |
| 20260906020808 | 64 | 244 | 1.0 | 4.0 | 0.00 | 0.18 | 0.03 | 50 | 1016.9 |
| 20260906020046 | 64 | 236 | 0.0 | 4.0 | 0.00 | 0.18 | 0.03 | 50 | 1016.9 |
| 20260906015546 | 64 | 260 | 0.0 | 2.0 | 0.00 | 0.18 | 0.03 | 50 | 1017.0 |
| 20260906015046 | 64 | 244 | 0.0 | 4.0 | 0.00 | 0.18 | 0.03 | 50 | 1017.0 |
| 20260906014546 | 63 | 217 | 1.0 | 4.0 | 0.00 | 0.18 | 0.03 | 50 | 1017.0 |
| 20260906014045 | 63 | 282 | 0.0 | 3.0 | 0.00 | 0.18 | 0.03 | 50 | 1016.9 |
| 20260906013546 | 63 | 308 | 0.0 | 5.0 | 0.00 | 0.18 | 0.03 | 51 | 1016.9 |
| 20260906013044 | 63 | 224 | 0.0 | 5.0 | 0.00 | 0.18 | 0.03 | 49 | 1016.8 |
| 20260906012546 | 63 | 201 | 0.0 | 2.0 | 0.00 | 0.18 | 0.03 | 49 | 1016.9 |
| 20260906012316 | 62 | 218 | 1.0 | 5.0 | 0.00 | 0.18 | 0.03 | 49 | 1016.8 |
| 20260906011541 | 62 | 351 | 1.0 | 6.0 | 0.00 | 0.18 | 0.03 | 49 | 1016.9 |
| 20260906011043 | 62 | 38 | 1.0 | 6.0 | 0.00 | 0.18 | 0.03 | 50 | 1016.9 |
| 20260906010537 | 62 | 102 | 0.0 | 3.0 | 0.00 | 0.18 | 0.03 | 50 | 1016.8 |
| 20260906010029 | 62 | 282 | 0.0 | 4.0 | 0.00 | 0.18 | 0.03 | 52 | 1016.8 |
| 20260906005525 | 61 | 278 | 0.0 | 4.0 | 0.00 | 0.18 | 0.03 | 52 | 1016.9 |
| 20260906005019 | 61 | 321 | 1.0 | 3.0 | 0.00 | 0.18 | 0.03 | 52 | 1016.8 |
| 20260906004949 | 61 | 186 | 1.0 | 5.0 | 0.00 | 0.19 | 0.03 | 51 | 1016.8 |
| 20260906004013 | 60 | 93 | 1.0 | 5.0 | 0.00 | 0.19 | 0.03 | 52 | 1016.7 |
| 20260906003511 | 61 | 176 | 1.0 | 4.0 | 0.00 | 0.19 | 0.03 | 53 | 1016.7 |
| 20260906003011 | 60 | 57 | 1.0 | 3.0 | 0.00 | 0.19 | 0.03 | 54 | 1016.5 |
| 20260906002727 | 60 | 76 | 1.0 | 3.0 | 0.00 | 0.20 | 0.03 | 53 | 1016.7 |
| 20260906002010 | 60 | 27 | 0.0 | 3.0 | 0.00 | 0.20 | 0.03 | 53 | 1016.7 |
| 20260906001732 | 59 | 180 | 0.0 | 3.0 | 0.00 | 0.20 | 0.03 | 54 | 1016.5 |
| 20260906001010 | 59 | 262 | 0.0 | 5.0 | 0.00 | 0.20 | 0.03 | 55 | 1016.5 |
| 20260906000501 | 59 | 190 | 0.0 | 5.0 | 0.00 | 0.21 | 0.03 | 53 | 1016.5 |
| 20260906000002 | 59 | 236 | 0.0 | 1.0 | 0.00 | 0.22 | 0.03 | 55 | 1016.7 |
| 20260905235501 | 58 | 216 | 0.0 | 5.0 | 0.00 | 0.24 | 0.03 | 56 | 1016.5 |
| 20260905234959 | 58 | 217 | 0.0 | 5.0 | 0.00 | 0.26 | 0.03 | 57 | 1016.5 |
| 20260905234726 | 58 | 71 | 0.0 | 2.0 | 0.00 | 0.26 | 0.03 | 55 | 1016.5 |
| 20260905233956 | 58 | 240 | 0.0 | 3.0 | 0.00 | 0.27 | 0.03 | 56 | 1016.4 |
| 20260905233455 | 58 | 342 | 1.0 | 4.0 | 0.00 | 0.28 | 0.03 | 59 | 1016.3 |
| 20260905232951 | 58 | 215 | 1.0 | 4.0 | 0.00 | 0.28 | 0.03 | 56 | 1016.3 |
| 20260905232452 | 58 | 7 | 0.0 | 3.0 | 0.00 | 0.28 | 0.03 | 56 | 1016.2 |
| 20260905231952 | 58 | 269 | 0.0 | 0.0 | 0.00 | 0.28 | 0.03 | 57 | 1016.2 |
| 20260905231449 | 57 | 269 | 0.0 | 2.0 | 0.00 | 0.28 | 0.03 | 57 | 1016.2 |
| 20260905230947 | 57 | 341 | 0.0 | 3.0 | 0.00 | 0.28 | 0.03 | 60 | 1016.2 |
| 20260905230709 | 57 | 339 | 0.0 | 3.0 | 0.00 | 0.28 | 0.03 | 59 | 1016.1 |
| 20260905225941 | 56 | 25 | 0.0 | 4.0 | 0.00 | 0.28 | 0.03 | 60 | 1016.0 |
| 20260905225657 | 56 | 349 | 0.0 | 4.0 | 0.00 | 0.28 | 0.03 | 60 | 1016.0 |
| 20260905224930 | 56 | 334 | 1.0 | 4.0 | 0.00 | 0.28 | 0.03 | 62 | 1015.9 |
| 20260905224425 | 55 | 17 | 1.0 | 5.0 | 0.00 | 0.28 | 0.03 | 63 | 1015.9 |